,,Stat6,,Stat2,,Stat8,,Stat9,,Stat10,,Wind1,,Wind1,
time,status,PA1M_AVG,status,PR1M_SUM,status,RH1M_AVG,status,SR1M_AVG,status,TA1M_AVG,status,W1dAve1m,status,W1sAve1m,
2009-06-08, 00:00:00,VALID,918.359,VALID,0,VALID,99.7815,VALID,-0.0679233,VALID,19.8071,VALID,335,VALID,0.312145,
2009-06-08, 00:01:00,VALID,918.333,VALID,0,VALID,99.9891,VALID,-0.0679233,VALID,19.7649,VALID,305,VALID,0.21596,
2009-06-08, 00:02:00,VALID,918.294,VALID,0,VALID,100,VALID,-0.0679233,VALID,19.7422,VALID,284,VALID,0.119336,
2009-06-08, 00:03:00,VALID,918.298,VALID,0,VALID,100,VALID,-0.0509425,VALID,19.7135,VALID,203,VALID,0.270419,
2009-06-08, 00:04:00,VALID,918.286,VALID,0,VALID,100,VALID,-0.0509425,VALID,19.723,VALID,203,VALID,0,
2009-06-08, 00:05:00,VALID,918.306,VALID,0,VALID,100,VALID,-0.0339617,VALID,19.7552,VALID,203,VALID,0,
2009-06-08, 00:06:00,VALID,918.315,VALID,0,VALID,100,VALID,-0.0679233,VALID,19.7809,VALID,203,VALID,0,
2009-06-08, 00:07:00,VALID,918.316,VALID,0,VALID,100,VALID,-0.0169808,VALID,19.7874,VALID,203,VALID,0,
2009-06-08, 00:08:00,VALID,918.318,VALID,0,VALID,100,VALID,-0.0339617,VALID,19.7712,VALID,203,VALID,0,
2009-06-08, 00:09:00,VALID,918.311,VALID,0,VALID,100,VALID,-0.0339617,VALID,19.7612,VALID,203,VALID,0,
2009-06-08, 00:10:00,VALID,918.304,VALID,0,VALID,100,VALID,-0.0509425,VALID,19.7709,VALID,203,VALID,0,
2009-06-08, 00:11:00,VALID,918.286,VALID,0,VALID,100,VALID,-0.0849042,VALID,19.7782,VALID,203,VALID,0,
2009-06-08, 00:12:00,VALID,918.279,VALID,0,VALID,100,VALID,-0.0849042,VALID,19.7659,VALID,203,VALID,0,
2009-06-08, 00:13:00,VALID,918.282,VALID,0,VALID,100,VALID,-0.101885,VALID,19.7467,VALID,203,VALID,0,
2009-06-08, 00:14:00,VALID,918.281,VALID,0,VALID,100,VALID,-0.0849042,VALID,19.7375,VALID,203,VALID,0,
2009-06-08, 00:15:00,VALID,918.296,VALID,0,VALID,100,VALID,-0.101885,VALID,19.7694,VALID,203,VALID,0,
2009-06-08, 00:16:00,VALID,918.302,VALID,0,VALID,100,VALID,-0.101885,VALID,19.7667,VALID,203,VALID,0,
2009-06-08, 00:17:00,VALID,918.318,VALID,0,VALID,100,VALID,-0.118866,VALID,19.7278,VALID,203,VALID,0,
2009-06-08, 00:18:00,VALID,918.324,VALID,0,VALID,100,VALID,-0.118866,VALID,19.7048,VALID,203,VALID,0,
2009-06-08, 00:19:00,VALID,918.322,VALID,0,VALID,100,VALID,-0.118866,VALID,19.7275,VALID,151,VALID,1.0186,
2009-06-08, 00:20:00,VALID,918.311,VALID,0,VALID,100,VALID,-0.101885,VALID,19.7862,VALID,128,VALID,0.933222,
2009-06-08, 00:21:00,VALID,918.293,VALID,0,VALID,100,VALID,-0.118866,VALID,19.7432,VALID,117,VALID,0.796317,
2009-06-08, 00:22:00,VALID,918.256,VALID,0,VALID,100,VALID,-0.135847,VALID,19.7542,VALID,116,VALID,0.910742,
2009-06-08, 00:23:00,VALID,918.237,VALID,0,VALID,100,VALID,-0.118866,VALID,19.6758,VALID,118,VALID,0.903045,
2009-06-08, 00:24:00,VALID,918.228,VALID,0,VALID,100,VALID,-0.135847,VALID,19.6429,VALID,128,VALID,1.1495,
2009-06-08, 00:25:00,VALID,918.222,VALID,0,VALID,100,VALID,-0.101885,VALID,19.6431,VALID,123,VALID,1.16719,
2009-06-08, 00:26:00,VALID,918.2,VALID,0,VALID,100,VALID,-0.101885,VALID,19.6129,VALID,125,VALID,1.11009,
2009-06-08, 00:27:00,VALID,918.188,VALID,0,VALID,100,VALID,-0.0169808,VALID,19.5768,VALID,138,VALID,1.10511,
2009-06-08, 00:28:00,VALID,918.181,VALID,0,VALID,100,VALID,-0.0339617,VALID,19.5476,VALID,139,VALID,0.751367,
2009-06-08, 00:29:00,VALID,918.179,VALID,0,VALID,100,VALID,0,VALID,19.4986,VALID,141,VALID,0.577363,
2009-06-08, 00:30:00,VALID,918.165,VALID,0,VALID,100,VALID,-0.0169808,VALID,19.4669,VALID,135,VALID,0.687322,
2009-06-08, 00:31:00,VALID,918.152,VALID,0,VALID,100,VALID,-0.0169808,VALID,19.4013,VALID,123,VALID,0.90143,
2009-06-08, 00:32:00,VALID,918.138,VALID,0,VALID,100,VALID,-0.0509425,VALID,19.3823,VALID,130,VALID,0.92832,
2009-06-08, 00:33:00,VALID,918.13,VALID,0,VALID,100,VALID,-0.0169808,VALID,19.3691,VALID,133,VALID,0.839935,
2009-06-08, 00:34:00,VALID,918.122,VALID,0,VALID,100,VALID,0,VALID,19.3492,VALID,147,VALID,0.707698,
2009-06-08, 00:35:00,VALID,918.095,VALID,0,VALID,100,VALID,0,VALID,19.3492,VALID,165,VALID,0.997904,
2009-06-08, 00:36:00,VALID,918.064,VALID,0,VALID,100,VALID,0,VALID,19.3432,VALID,165,VALID,1.07158,
2009-06-08, 00:37:00,VALID,918.031,VALID,0,VALID,100,VALID,-0.0339617,VALID,19.3464,VALID,166,VALID,1.12742,
2009-06-08, 00:38:00,VALID,917.986,VALID,0,VALID,100,VALID,-0.0339617,VALID,19.3464,VALID,162,VALID,1.09394,
2009-06-08, 00:39:00,VALID,917.947,VALID,0,VALID,100,VALID,0,VALID,19.3332,VALID,156,VALID,0.953125,
2009-06-08, 00:40:00,VALID,917.892,VALID,0,VALID,100,VALID,-0.0339617,VALID,19.3167,VALID,155,VALID,1.07012,
2009-06-08, 00:41:00,VALID,917.871,VALID,0,VALID,100,VALID,-0.0169808,VALID,19.3102,VALID,157,VALID,1.05015,
2009-06-08, 00:42:00,VALID,917.833,VALID,0,VALID,100,VALID,-0.0509425,VALID,19.304,VALID,160,VALID,1.10621,
2009-06-08, 00:43:00,VALID,917.811,VALID,0,VALID,100,VALID,0,VALID,19.3045,VALID,158,VALID,1.20713,
2009-06-08, 00:44:00,VALID,917.786,VALID,0,VALID,100,VALID,-0.0509425,VALID,19.288,VALID,161,VALID,0.915334,
2009-06-08, 00:45:00,VALID,917.773,VALID,0,VALID,100,VALID,-0.0339617,VALID,19.3012,VALID,155,VALID,0.907965,
2009-06-08, 00:46:00,VALID,917.775,VALID,0,VALID,100,VALID,-0.0169808,VALID,19.3007,VALID,151,VALID,0.726372,
2009-06-08, 00:47:00,VALID,917.777,VALID,0,VALID,100,VALID,0,VALID,19.3102,VALID,145,VALID,0.72218,
2009-06-08, 00:48:00,VALID,917.757,VALID,0,VALID,100,VALID,-0.0339617,VALID,19.3105,VALID,140,VALID,0.511624,
2009-06-08, 00:49:00,VALID,917.733,VALID,0,VALID,100,VALID,-0.0169808,VALID,19.294,VALID,132,VALID,0.776867,
2009-06-08, 00:50:00,VALID,917.702,VALID,0,VALID,100,VALID,0,VALID,19.3299,VALID,123,VALID,0.958576,
2009-06-08, 00:51:00,VALID,917.681,VALID,0,VALID,100,VALID,-0.0509425,VALID,19.3751,VALID,120,VALID,0.895531,
2009-06-08, 00:52:00,VALID,917.671,VALID,0,VALID,100,VALID,0,VALID,19.411,VALID,126,VALID,0.878551,
2009-06-08, 00:53:00,VALID,917.662,VALID,0,VALID,100,VALID,0,VALID,19.4275,VALID,140,VALID,0.646094,
2009-06-08, 00:54:00,VALID,917.657,VALID,0,VALID,100,VALID,-0.0169808,VALID,19.4245,VALID,145,VALID,0.747638,
2009-06-08, 00:55:00,VALID,917.653,VALID,0,VALID,100,VALID,0,VALID,19.4073,VALID,155,VALID,0.829368,
2009-06-08, 00:56:00,VALID,917.658,VALID,0,VALID,100,VALID,0.0169808,VALID,19.4108,VALID,146,VALID,1.00362,
2009-06-08, 00:57:00,VALID,917.665,VALID,0,VALID,100,VALID,0.0169808,VALID,19.3911,VALID,142,VALID,0.762957,
2009-06-08, 00:58:00,VALID,917.69,VALID,0,VALID,100,VALID,-0.0169808,VALID,19.3878,VALID,134,VALID,0.481445,
2009-06-08, 00:59:00,VALID,917.718,VALID,0,VALID,100,VALID,-0.0169808,VALID,19.4018,VALID,149,VALID,0.587536,
2009-06-08, 01:00:00,VALID,917.751,VALID,0,VALID,100,VALID,0,VALID,19.3784,VALID,150,VALID,0.903646,
2009-06-08, 01:01:00,VALID,917.773,VALID,0,VALID,100,VALID,0,VALID,19.4016,VALID,152,VALID,0.964258,
2009-06-08, 01:02:00,VALID,917.791,VALID,0,VALID,100,VALID,-0.0169808,VALID,19.4043,VALID,155,VALID,0.953125,
2009-06-08, 01:03:00,VALID,917.809,VALID,0,VALID,100,VALID,0.0169808,VALID,19.427,VALID,153,VALID,0.957122,
2009-06-08, 01:04:00,VALID,917.81,VALID,0,VALID,100,VALID,-0.0169808,VALID,19.4372,VALID,150,VALID,0.987537,
2009-06-08, 01:05:00,VALID,917.8,VALID,0,VALID,100,VALID,0,VALID,19.4305,VALID,150,VALID,0.930959,
2009-06-08, 01:06:00,VALID,917.807,VALID,0,VALID,100,VALID,-0.0679233,VALID,19.434,VALID,145,VALID,0.820694,
2009-06-08, 01:07:00,VALID,917.796,VALID,0,VALID,100,VALID,-0.0169808,VALID,19.4203,VALID,144,VALID,0.629261,
2009-06-08, 01:08:00,VALID,917.775,VALID,0,VALID,100,VALID,0,VALID,19.447,VALID,144,VALID,1.0186,
2009-06-08, 01:09:00,VALID,917.762,VALID,0,VALID,100,VALID,0,VALID,19.4854,VALID,146,VALID,0.886814,
2009-06-08, 01:10:00,VALID,917.742,VALID,0,VALID,100,VALID,0,VALID,19.4794,VALID,146,VALID,1.00591,
2009-06-08, 01:11:00,VALID,917.724,VALID,0,VALID,100,VALID,-0.0509425,VALID,19.4767,VALID,142,VALID,0.733994,
2009-06-08, 01:12:00,VALID,917.724,VALID,0,VALID,100,VALID,-0.0849042,VALID,19.4447,VALID,138,VALID,1.01413,
2009-06-08, 01:13:00,VALID,917.731,VALID,0,VALID,100,VALID,-0.101885,VALID,19.4714,VALID,138,VALID,1.00654,
2009-06-08, 01:14:00,VALID,917.715,VALID,0,VALID,100,VALID,-0.101885,VALID,19.4377,VALID,144,VALID,0.739955,
2009-06-08, 01:15:00,VALID,917.725,VALID,0,VALID,100,VALID,-0.101885,VALID,19.4512,VALID,138,VALID,1.20585,
2009-06-08, 01:16:00,VALID,917.735,VALID,0,VALID,100,VALID,-0.101885,VALID,19.4707,VALID,133,VALID,1.04013,
2009-06-08, 01:17:00,VALID,917.749,VALID,0,VALID,100,VALID,-0.101885,VALID,19.4577,VALID,129,VALID,1.09993,
2009-06-08, 01:18:00,VALID,917.744,VALID,0,VALID,100,VALID,-0.101885,VALID,19.438,VALID,127,VALID,0.887607,
2009-06-08, 01:19:00,VALID,917.75,VALID,0,VALID,100,VALID,-0.118866,VALID,19.4218,VALID,117,VALID,0.948633,
2009-06-08, 01:20:00,VALID,917.747,VALID,0,VALID,100,VALID,-0.118866,VALID,19.4058,VALID,115,VALID,0.993712,
2009-06-08, 01:21:00,VALID,917.747,VALID,0,VALID,100,VALID,-0.118866,VALID,19.3928,VALID,100,VALID,1.11875,
2009-06-08, 01:22:00,VALID,917.766,VALID,0,VALID,100,VALID,-0.101885,VALID,19.3671,VALID,90,VALID,1.06889,
2009-06-08, 01:23:00,VALID,917.786,VALID,0,VALID,100,VALID,-0.101885,VALID,19.3509,VALID,90,VALID,1.10156,
2009-06-08, 01:24:00,VALID,917.807,VALID,0,VALID,100,VALID,-0.101885,VALID,19.3476,VALID,91,VALID,0.974019,
2009-06-08, 01:25:00,VALID,917.819,VALID,0,VALID,100,VALID,-0.0849042,VALID,19.3506,VALID,95,VALID,1.02065,
2009-06-08, 01:26:00,VALID,917.841,VALID,0,VALID,100,VALID,-0.0849042,VALID,19.3601,VALID,111,VALID,0.966206,
2009-06-08, 01:27:00,VALID,917.851,VALID,0,VALID,100,VALID,-0.101885,VALID,19.4058,VALID,116,VALID,1.10119,
2009-06-08, 01:28:00,VALID,917.865,VALID,0,VALID,100,VALID,-0.118866,VALID,19.4485,VALID,118,VALID,1.0734,
2009-06-08, 01:29:00,VALID,917.864,VALID,0,VALID,100,VALID,-0.101885,VALID,19.4642,VALID,107,VALID,1.24256,
2009-06-08, 01:30:00,VALID,917.87,VALID,0,VALID,100,VALID,-0.101885,VALID,19.4215,VALID,106,VALID,1.44609,
2009-06-08, 01:31:00,VALID,917.876,VALID,0,VALID,100,VALID,-0.0849042,VALID,19.409,VALID,105,VALID,1.35919,
2009-06-08, 01:32:00,VALID,917.906,VALID,0,VALID,100,VALID,-0.101885,VALID,19.3768,VALID,118,VALID,1.06392,
2009-06-08, 01:33:00,VALID,917.915,VALID,0,VALID,100,VALID,-0.101885,VALID,19.3284,VALID,127,VALID,1.32158,
2009-06-08, 01:34:00,VALID,917.895,VALID,0,VALID,100,VALID,-0.101885,VALID,19.2695,VALID,127,VALID,1.30586,
2009-06-08, 01:35:00,VALID,917.895,VALID,0,VALID,100,VALID,-0.101885,VALID,19.2176,VALID,137,VALID,1.39196,
2009-06-08, 01:36:00,VALID,917.867,VALID,0,VALID,100,VALID,-0.101885,VALID,19.1684,VALID,126,VALID,1.1806,
2009-06-08, 01:37:00,VALID,917.87,VALID,0,VALID,100,VALID,-0.101885,VALID,19.1367,VALID,127,VALID,1.20721,
2009-06-08, 01:38:00,VALID,917.871,VALID,0,VALID,100,VALID,-0.101885,VALID,19.1265,VALID,124,VALID,1.26543,
2009-06-08, 01:39:00,VALID,917.869,VALID,0,VALID,100,VALID,-0.118866,VALID,19.12,VALID,118,VALID,1.10831,
2009-06-08, 01:40:00,VALID,917.867,VALID,0,VALID,100,VALID,-0.0849042,VALID,19.1298,VALID,120,VALID,1.10296,
2009-06-08, 01:41:00,VALID,917.861,VALID,0,VALID,100,VALID,-0.0339617,VALID,19.142,VALID,117,VALID,1.1471,
2009-06-08, 01:42:00,VALID,917.866,VALID,0,VALID,100,VALID,0.0169808,VALID,19.177,VALID,118,VALID,1.01067,
2009-06-08, 01:43:00,VALID,917.9,VALID,0,VALID,100,VALID,0,VALID,19.2062,VALID,126,VALID,0.814918,
2009-06-08, 01:44:00,VALID,917.923,VALID,0,VALID,100,VALID,0.0169808,VALID,19.2259,VALID,130,VALID,0.723772,
2009-06-08, 01:45:00,VALID,917.952,VALID,0,VALID,100,VALID,0,VALID,19.2583,VALID,121,VALID,0.716033,
2009-06-08, 01:46:00,VALID,917.949,VALID,0,VALID,100,VALID,0,VALID,19.2908,VALID,124,VALID,0.890816,
2009-06-08, 01:47:00,VALID,917.977,VALID,0,VALID,100,VALID,0.0169808,VALID,19.3097,VALID,137,VALID,0.852095,
2009-06-08, 01:48:00,VALID,917.979,VALID,0,VALID,100,VALID,0.0169808,VALID,19.31,VALID,149,VALID,0.76059,
2009-06-08, 01:49:00,VALID,917.993,VALID,0,VALID,100,VALID,0,VALID,19.3197,VALID,157,VALID,0.970486,
2009-06-08, 01:50:00,VALID,918.004,VALID,0,VALID,100,VALID,0,VALID,19.3754,VALID,162,VALID,0.735709,
2009-06-08, 01:51:00,VALID,917.994,VALID,0,VALID,100,VALID,0,VALID,19.4367,VALID,159,VALID,0.54184,
2009-06-08, 01:52:00,VALID,917.998,VALID,0,VALID,100,VALID,0,VALID,19.4852,VALID,145,VALID,0.712271,
2009-06-08, 01:53:00,VALID,917.991,VALID,0,VALID,100,VALID,-0.0169808,VALID,19.5211,VALID,133,VALID,0.585537,
2009-06-08, 01:54:00,VALID,917.989,VALID,0,VALID,100,VALID,0,VALID,19.5144,VALID,136,VALID,1.00763,
2009-06-08, 01:55:00,VALID,917.985,VALID,0,VALID,100,VALID,0,VALID,19.56,VALID,132,VALID,1.22994,
2009-06-08, 01:56:00,VALID,917.96,VALID,0,VALID,100,VALID,0,VALID,19.579,VALID,119,VALID,1.3185,
2009-06-08, 01:57:00,VALID,917.949,VALID,0,VALID,100,VALID,0,VALID,19.6214,VALID,97,VALID,0.988009,
2009-06-08, 01:58:00,VALID,917.944,VALID,0,VALID,100,VALID,0,VALID,19.6087,VALID,92,VALID,0.771391,
2009-06-08, 01:59:00,VALID,917.922,VALID,0,VALID,100,VALID,0.0339617,VALID,19.6149,VALID,83,VALID,0.263867,
2009-06-08, 02:00:00,VALID,917.913,VALID,0,VALID,100,VALID,0.0339617,VALID,19.602,VALID,82,VALID,0,
2009-06-08, 02:01:00,VALID,917.89,VALID,0,VALID,100,VALID,0.0169808,VALID,19.5987,VALID,82,VALID,0,
2009-06-08, 02:02:00,VALID,917.889,VALID,0,VALID,100,VALID,0,VALID,19.5957,VALID,82,VALID,0,
2009-06-08, 02:03:00,VALID,917.884,VALID,0,VALID,100,VALID,0,VALID,19.589,VALID,73,VALID,0.143924,
2009-06-08, 02:04:00,VALID,917.864,VALID,0,VALID,100,VALID,-0.0169808,VALID,19.5016,VALID,58,VALID,1.62234,
2009-06-08, 02:05:00,VALID,917.888,VALID,0,VALID,100,VALID,-0.0509425,VALID,19.6154,VALID,58,VALID,1.66406,
2009-06-08, 02:06:00,VALID,917.893,VALID,0,VALID,100,VALID,0.0169808,VALID,19.6409,VALID,78,VALID,1.03277,
2009-06-08, 02:07:00,VALID,917.888,VALID,0,VALID,100,VALID,0,VALID,19.6412,VALID,91,VALID,0.969815,
2009-06-08, 02:08:00,VALID,917.89,VALID,0,VALID,100,VALID,0.0679233,VALID,19.6119,VALID,123,VALID,0.895894,
2009-06-08, 02:09:00,VALID,917.897,VALID,0,VALID,100,VALID,0,VALID,19.5663,VALID,129,VALID,0.162064,
2009-06-08, 02:10:00,VALID,917.883,VALID,0,VALID,100,VALID,-0.0169808,VALID,19.5273,VALID,130,VALID,0.112165,
2009-06-08, 02:11:00,VALID,917.894,VALID,0,VALID,100,VALID,0,VALID,19.4722,VALID,130,VALID,0,
2009-06-08, 02:12:00,VALID,917.889,VALID,0,VALID,100,VALID,0.0169808,VALID,19.4495,VALID,132,VALID,0.0146723,
2009-06-08, 02:13:00,VALID,917.869,VALID,0,VALID,100,VALID,0,VALID,19.417,VALID,145,VALID,1.18932,
2009-06-08, 02:14:00,VALID,917.856,VALID,0,VALID,100,VALID,0,VALID,19.4792,VALID,132,VALID,1.20461,
2009-06-08, 02:15:00,VALID,917.862,VALID,0,VALID,100,VALID,0.0169808,VALID,19.4625,VALID,130,VALID,0.78782,
2009-06-08, 02:16:00,VALID,917.859,VALID,0,VALID,100,VALID,0,VALID,19.4363,VALID,129,VALID,0.0102307,
2009-06-08, 02:17:00,VALID,917.838,VALID,0,VALID,100,VALID,0.0169808,VALID,19.3716,VALID,129,VALID,0,
2009-06-08, 02:18:00,VALID,917.833,VALID,0,VALID,100,VALID,0.0339617,VALID,19.3454,VALID,129,VALID,0,
2009-06-08, 02:19:00,VALID,917.828,VALID,0,VALID,100,VALID,0,VALID,19.3329,VALID,125,VALID,0,
2009-06-08, 02:20:00,VALID,917.815,VALID,0,VALID,100,VALID,0,VALID,19.271,VALID,63,VALID,0.490007,
2009-06-08, 02:21:00,VALID,917.805,VALID,0,VALID,100,VALID,0.0169808,VALID,19.2458,VALID,63,VALID,0.134993,
2009-06-08, 02:22:00,VALID,917.798,VALID,0,VALID,100,VALID,-0.0169808,VALID,19.2324,VALID,54,VALID,0.170573,
2009-06-08, 02:23:00,VALID,917.797,VALID,0,VALID,100,VALID,0,VALID,19.2416,VALID,332,VALID,0.518043,
2009-06-08, 02:24:00,VALID,917.789,VALID,0,VALID,100,VALID,0,VALID,19.2778,VALID,325,VALID,0.0322917,
2009-06-08, 02:25:00,VALID,917.785,VALID,0,VALID,100,VALID,0,VALID,19.3299,VALID,325,VALID,0,
2009-06-08, 02:26:00,VALID,917.77,VALID,0,VALID,100,VALID,0,VALID,19.2905,VALID,325,VALID,0,
2009-06-08, 02:27:00,VALID,917.755,VALID,0,VALID,100,VALID,-0.0169808,VALID,19.32,VALID,326,VALID,0,
2009-06-08, 02:28:00,VALID,917.722,VALID,0,VALID,100,VALID,-0.0339617,VALID,19.411,VALID,328,VALID,0.0102431,
2009-06-08, 02:29:00,VALID,917.703,VALID,0,VALID,100,VALID,-0.0169808,VALID,19.4011,VALID,346,VALID,0.436012,
2009-06-08, 02:30:00,VALID,917.685,VALID,0,VALID,100,VALID,0,VALID,19.3911,VALID,26,VALID,0.646949,
2009-06-08, 02:31:00,VALID,917.673,VALID,0,VALID,100,VALID,0,VALID,19.3651,VALID,26,VALID,0.213299,
2009-06-08, 02:32:00,VALID,917.658,VALID,0,VALID,100,VALID,-0.0169808,VALID,19.3719,VALID,26,VALID,0,
2009-06-08, 02:33:00,VALID,917.63,VALID,0,VALID,100,VALID,0,VALID,19.44,VALID,26,VALID,0,
2009-06-08, 02:34:00,VALID,917.637,VALID,0,VALID,100,VALID,0,VALID,19.5239,VALID,26,VALID,0.0260417,
2009-06-08, 02:35:00,VALID,917.629,VALID,0,VALID,100,VALID,0.0169808,VALID,19.589,VALID,24,VALID,0.539063,
2009-06-08, 02:36:00,VALID,917.616,VALID,0,VALID,100,VALID,0.0169808,VALID,19.5373,VALID,19,VALID,0.293857,
2009-06-08, 02:37:00,VALID,917.591,VALID,0,VALID,100,VALID,0,VALID,19.446,VALID,37,VALID,0.586483,
2009-06-08, 02:38:00,VALID,917.585,VALID,0,VALID,100,VALID,-0.0169808,VALID,19.5206,VALID,42,VALID,0.681868,
2009-06-08, 02:39:00,VALID,917.572,VALID,0,VALID,100,VALID,0,VALID,19.602,VALID,47,VALID,0.509811,
2009-06-08, 02:40:00,VALID,917.564,VALID,0,VALID,100,VALID,0,VALID,19.6052,VALID,49,VALID,0.601181,
2009-06-08, 02:41:00,VALID,917.552,VALID,0,VALID,100,VALID,-0.0169808,VALID,19.4917,VALID,40,VALID,0.626042,
2009-06-08, 02:42:00,VALID,917.542,VALID,0,VALID,100,VALID,-0.0169808,VALID,19.4397,VALID,38,VALID,0.477865,
2009-06-08, 02:43:00,VALID,917.54,VALID,0,VALID,100,VALID,0,VALID,19.4657,VALID,54,VALID,0.670732,
2009-06-08, 02:44:00,VALID,917.54,VALID,0,VALID,100,VALID,0.0169808,VALID,19.4625,VALID,61,VALID,0.303299,
2009-06-08, 02:45:00,VALID,917.553,VALID,0,VALID,100,VALID,0,VALID,19.44,VALID,65,VALID,0.0390625,
2009-06-08, 02:46:00,VALID,917.553,VALID,0,VALID,100,VALID,0,VALID,19.4365,VALID,67,VALID,0,
2009-06-08, 02:47:00,VALID,917.555,VALID,0,VALID,100,VALID,-0.0169808,VALID,19.4273,VALID,67,VALID,0,
2009-06-08, 02:48:00,VALID,917.563,VALID,0,VALID,100,VALID,0.0169808,VALID,19.4233,VALID,67,VALID,0,
2009-06-08, 02:49:00,VALID,917.561,VALID,0,VALID,100,VALID,0,VALID,19.3846,VALID,67,VALID,0,
2009-06-08, 02:50:00,VALID,917.546,VALID,0,VALID,100,VALID,-0.0339617,VALID,19.3749,VALID,72,VALID,0.176829,
2009-06-08, 02:51:00,VALID,917.524,VALID,0,VALID,100,VALID,0.0169808,VALID,19.3946,VALID,76,VALID,0.729514,
2009-06-08, 02:52:00,VALID,917.494,VALID,0,VALID,100,VALID,0,VALID,19.4073,VALID,100,VALID,0.90811,
2009-06-08, 02:53:00,VALID,917.495,VALID,0,VALID,100,VALID,0,VALID,19.3554,VALID,146,VALID,0.803385,
2009-06-08, 02:54:00,VALID,917.486,VALID,0,VALID,100,VALID,0.0169808,VALID,19.2743,VALID,169,VALID,1.01135,
2009-06-08, 02:55:00,VALID,917.481,VALID,0,VALID,100,VALID,-0.0169808,VALID,19.1575,VALID,173,VALID,1.14323,
2009-06-08, 02:56:00,VALID,917.461,VALID,0,VALID,100,VALID,0,VALID,19.0472,VALID,156,VALID,1.25999,
2009-06-08, 02:57:00,VALID,917.431,VALID,0,VALID,100,VALID,-0.0169808,VALID,18.9728,VALID,151,VALID,1.59766,
2009-06-08, 02:58:00,VALID,917.386,VALID,0,VALID,100,VALID,0,VALID,18.9304,VALID,136,VALID,1.54059,
2009-06-08, 02:59:00,VALID,917.372,VALID,0,VALID,100,VALID,-0.0339617,VALID,18.9501,VALID,114,VALID,1.23531,
2009-06-08, 03:00:00,VALID,917.342,VALID,0,VALID,100,VALID,0.0169808,VALID,18.9175,VALID,102,VALID,0.942336,
2009-06-08, 03:01:00,VALID,917.301,VALID,0,VALID,100,VALID,0.0169808,VALID,18.872,VALID,103,VALID,0.973028,
2009-06-08, 03:02:00,VALID,917.273,VALID,0,VALID,100,VALID,-0.0169808,VALID,18.8853,VALID,110,VALID,1.12427,
2009-06-08, 03:03:00,VALID,917.234,VALID,0,VALID,100,VALID,0,VALID,18.8723,VALID,97,VALID,1.08303,
2009-06-08, 03:04:00,VALID,917.239,VALID,0,VALID,100,VALID,0,VALID,18.869,VALID,107,VALID,1.1981,
2009-06-08, 03:05:00,VALID,917.248,VALID,0,VALID,100,VALID,0,VALID,18.8853,VALID,130,VALID,1.26944,
2009-06-08, 03:06:00,VALID,917.235,VALID,0,VALID,100,VALID,0,VALID,18.8785,VALID,144,VALID,1.13393,
2009-06-08, 03:07:00,VALID,917.226,VALID,0,VALID,100,VALID,0,VALID,18.8945,VALID,138,VALID,0.924479,
2009-06-08, 03:08:00,VALID,917.223,VALID,0,VALID,100,VALID,0.0169808,VALID,18.901,VALID,122,VALID,1.02115,
2009-06-08, 03:09:00,VALID,917.227,VALID,0,VALID,100,VALID,0.0339617,VALID,18.9175,VALID,129,VALID,0.990371,
2009-06-08, 03:10:00,VALID,917.225,VALID,0,VALID,100,VALID,0,VALID,18.911,VALID,108,VALID,0.916193,
2009-06-08, 03:11:00,VALID,917.212,VALID,0,VALID,100,VALID,0.0679233,VALID,18.8978,VALID,113,VALID,0.86942,
2009-06-08, 03:12:00,VALID,917.207,VALID,0,VALID,100,VALID,0.0339617,VALID,18.9786,VALID,132,VALID,0.934261,
2009-06-08, 03:13:00,VALID,917.201,VALID,0,VALID,100,VALID,0,VALID,19.0599,VALID,132,VALID,0.768483,
2009-06-08, 03:14:00,VALID,917.214,VALID,0,VALID,100,VALID,0,VALID,19.0859,VALID,132,VALID,0.532522,
2009-06-08, 03:15:00,VALID,917.224,VALID,0,VALID,100,VALID,0,VALID,19.1213,VALID,129,VALID,0.732376,
2009-06-08, 03:16:00,VALID,917.258,VALID,0,VALID,100,VALID,0,VALID,19.1707,VALID,117,VALID,0.452344,
2009-06-08, 03:17:00,VALID,917.283,VALID,0,VALID,100,VALID,0.0339617,VALID,19.1895,VALID,117,VALID,0,
2009-06-08, 03:18:00,VALID,917.28,VALID,0,VALID,100,VALID,0.0169808,VALID,19.2027,VALID,117,VALID,0,
2009-06-08, 03:19:00,VALID,917.278,VALID,0,VALID,100,VALID,0.0169808,VALID,19.2062,VALID,117,VALID,0.285342,
2009-06-08, 03:20:00,VALID,917.281,VALID,0,VALID,100,VALID,0,VALID,19.2451,VALID,117,VALID,0.653646,
2009-06-08, 03:21:00,VALID,917.302,VALID,0,VALID,100,VALID,0.0169808,VALID,19.2613,VALID,117,VALID,0.297286,
2009-06-08, 03:22:00,VALID,917.307,VALID,0,VALID,100,VALID,0.0169808,VALID,19.2613,VALID,117,VALID,0,
2009-06-08, 03:23:00,VALID,917.324,VALID,0,VALID,100,VALID,0.0169808,VALID,19.2678,VALID,117,VALID,0,
2009-06-08, 03:24:00,VALID,917.336,VALID,0,VALID,100,VALID,0.0169808,VALID,19.274,VALID,121,VALID,0.0287109,
2009-06-08, 03:25:00,VALID,917.349,VALID,0,VALID,100,VALID,0.0169808,VALID,19.2905,VALID,120,VALID,0,
2009-06-08, 03:26:00,VALID,917.362,VALID,0,VALID,100,VALID,0,VALID,19.281,VALID,120,VALID,0,
2009-06-08, 03:27:00,VALID,917.378,VALID,0,VALID,100,VALID,0,VALID,19.2713,VALID,120,VALID,0,
2009-06-08, 03:28:00,VALID,917.387,VALID,0,VALID,100,VALID,0,VALID,19.2873,VALID,120,VALID,0,
2009-06-08, 03:29:00,VALID,917.389,VALID,0,VALID,100,VALID,0,VALID,19.2358,VALID,120,VALID,0,
2009-06-08, 03:30:00,VALID,917.394,VALID,0,VALID,100,VALID,-0.0169808,VALID,19.1994,VALID,103,VALID,0.454545,
2009-06-08, 03:31:00,VALID,917.399,VALID,0,VALID,100,VALID,0,VALID,19.2388,VALID,61,VALID,1.12188,
2009-06-08, 03:32:00,VALID,917.369,VALID,0,VALID,100,VALID,0,VALID,19.3616,VALID,62,VALID,1.23615,
2009-06-08, 03:33:00,VALID,917.355,VALID,0,VALID,100,VALID,0,VALID,19.5278,VALID,67,VALID,1.13517,
2009-06-08, 03:34:00,VALID,917.373,VALID,0,VALID,100,VALID,0,VALID,19.6182,VALID,68,VALID,0.826265,
2009-06-08, 03:35:00,VALID,917.384,VALID,0,VALID,100,VALID,-0.0339617,VALID,19.6699,VALID,67,VALID,0.0767228,
2009-06-08, 03:36:00,VALID,917.391,VALID,0,VALID,100,VALID,-0.0169808,VALID,19.6604,VALID,67,VALID,0.401042,
2009-06-08, 03:37:00,VALID,917.378,VALID,0,VALID,100,VALID,0.0169808,VALID,19.6574,VALID,73,VALID,0.633721,
2009-06-08, 03:38:00,VALID,917.365,VALID,0,VALID,100,VALID,-0.0169808,VALID,19.6704,VALID,85,VALID,0.991616,
2009-06-08, 03:39:00,VALID,917.352,VALID,0,VALID,100,VALID,-0.0339617,VALID,19.7318,VALID,83,VALID,1.14631,
2009-06-08, 03:40:00,VALID,917.33,VALID,0,VALID,100,VALID,-0.0169808,VALID,19.8226,VALID,83,VALID,1.08612,
2009-06-08, 03:41:00,VALID,917.306,VALID,0,VALID,100,VALID,-0.0509425,VALID,19.859,VALID,88,VALID,0.986523,
2009-06-08, 03:42:00,VALID,917.273,VALID,0,VALID,100,VALID,-0.101885,VALID,19.8598,VALID,90,VALID,0.828497,
2009-06-08, 03:43:00,VALID,917.257,VALID,0,VALID,100,VALID,-0.0849042,VALID,19.8338,VALID,97,VALID,0.974848,
2009-06-08, 03:44:00,VALID,917.235,VALID,0,VALID,99.9781,VALID,-0.101885,VALID,19.7717,VALID,97,VALID,0.990589,